User: anonymous   Login
Location: Honolulu
(21.3069°N, 157.8583°W)
Time: 13:04:15
(UTC-10:00)
Language:

Vanguard 2 - Orbit

View from above orbital plane
View from above orbital plane
View from above satellite
View from above satellite

Ground track
Ground track

The orbit is defined by the following mean orbital elements,

1 00011U          26135.25070197 +.00000000 +00000-0 +40901-3 0 00000
2 00011  32.8720 209.8069 1445077 229.4736 117.0890 11.90424441    07
Epoch (UTC): 15 May 2026 06:01:00
Eccentricity: 0.1445077
inclination: 32.8720°
perigee height: 553 km
apogee height: 2895 km
right ascension of ascending node: 209.8069°
argument of perigee: 229.4736°
revolutions per day: 11.90424441
mean anomaly at epoch: 117.0890°

The dashed part of the orbit path shows where the satellite is in the earth's shadow,  

DLR